#timestamp,LO_Frequency,Hit,StdDev 
1543392015.2,286046999.5,N
1543392035.0,286046999.2,N
1543392035.9,286046999.2,N
1543392055.8,286046997.1,N
1543392075.6,286046998.7,N
1543392095.4,286046999.0,N
1543392115.3,286046999.4,N
1543392135.1,286046997.6,N
1543392136.0,286046997.6,N
1543392155.8,286046997.4,N
1543392175.7,286046997.4,N
1543392195.5,286046995.4,Y
1543392215.4,286047000.8,P
1543392235.2,286047000.5,N
1543392255.0,286047002.5,N
1543392255.9,286047002.5,N
1543392275.8,286047002.8,N
1543392295.6,286047000.3,N
1543392315.4,286047000.7,N
1543392335.3,286046998.8,N
1543392355.1,286046999.3,N
1543392375.9,286046996.5,N
1543392395.7,286046996.6,N
1543392415.5,286046996.8,N
1543392435.4,286046997.4,N
1543392455.2,286046997.4,N
1543392475.0,286046997.8,N
1543392475.9,286046997.8,N
1543392495.8,286046995.5,N
1543392515.6,286046996.0,N
1543392535.5,286046993.6,N
1543392555.3,286046993.4,N
1543392575.1,286046994.1,N
1543392595.9,286046994.4,N
1543392615.7,286046993.5,N
1543392635.5,286046993.9,N
1543392655.4,286046994.4,N
1543392675.2,286046986.3,Y
1543392695.1,286046996.1,P
1543392696.0,286046996.1,P
1543392715.8,286046998.0,N
1543392735.6,286046993.9,Y
1543392755.5,286046996.4,P
1543392775.3,286046994.3,P
1543392795.1,286046991.7,P
1543392815.9,286046992.7,Y
1543392835.7,286046995.3,P
1543392855.6,286046997.2,P
1543392875.4,286046999.2,N
1543392895.2,286046998.2,N
1543392915.1,286046997.0,N
1543392916.0,286046997.0,N
1543392935.8,286046994.9,Y
1543392955.7,286047001.0,P
1543392975.5,286047001.0,N
1543392995.3,286047001.0,N
1543393015.2,286046998.9,N
1543393035.0,286046996.7,N
1543393035.9,286046996.7,N
1543393055.7,286046997.5,N
1543393075.6,286046997.3,N
1543393095.4,286046996.7,N
1543393115.3,286047001.0,N
1543393135.1,286046999.0,N
1543393136.0,286046999.0,N
1543393155.8,286046999.2,N
1543393175.7,286046997.0,N
1543393195.5,286046999.0,N
1543393215.3,286047002.3,N
1543393235.2,286047000.7,N
1543393255.0,286046999.0,N
1543393255.9,286046999.0,N
1543393275.8,286046996.5,N
1543393295.6,286046998.4,N
1543393315.4,286046998.5,N
1543393335.3,286046999.3,N
1543393355.1,286046999.2,N
1543393375.8,286047001.2,N
1543393395.7,286047000.5,N
1543393415.5,286047002.5,N
1543393435.4,286047003.8,N
1543393455.2,286047001.5,N
1543393475.0,286047000.1,N
1543393475.9,286047000.1,N
1543393495.8,286047000.2,N
1543393515.6,286047001.0,N
1543393535.4,286046999.4,N
1543393555.3,286046995.6,N
1543393575.1,286046993.6,Y
1543393595.9,286046994.0,P
1543393615.7,286046994.0,N
1543393635.5,286046994.1,N
1543393655.4,286046994.7,N
1543393675.2,286046993.4,Y
1543393695.0,286046998.5,P
1543393695.9,286046998.5,N
1543393715.8,286047000.6,N
1543393735.6,286047002.7,N
1543393755.5,286046999.9,N
1543393775.3,286047002.3,N
1543393795.1,286047002.5,N
1543393815.9,286047001.3,N
1543393835.7,286047004.3,N
1543393855.5,286047001.8,N
1543393875.4,286047001.0,N
1543393895.2,286046999.0,N
1543393915.1,286046997.4,N
1543393916.0,286046997.4,N
1543393935.8,286046995.9,N
1543393955.6,286046993.3,N
1543393975.5,286046995.3,N
1543393995.3,286046998.0,N
1543394015.1,286046995.0,N
1543394035.9,286046997.6,N
1543394055.7,286046995.0,N
1543394075.6,286046997.6,N
1543394095.4,286046993.3,N
1543394115.2,286046993.7,N
1543394135.1,286046994.5,N
1543394136.0,286046994.5,N
1543394155.8,286046995.7,N
1543394175.6,286046996.6,N
1543394195.5,286046996.5,N
1543394215.3,286046996.5,N
1543394235.2,286046996.7,N
1543394255.9,286046996.6,N
1543394275.7,286046997.3,N
1543394295.6,286046996.9,N
1543394315.4,286046995.7,N
1543394335.2,286046993.5,N
1543394355.1,286046993.3,N
1543394356.0,286046993.3,N
1543394375.8,286046991.8,Y
1543394395.7,286046997.2,P
1543394415.5,286046997.9,P
1543394435.3,286046995.7,P
1543394455.2,286046994.0,Y
1543394475.0,286046994.9,P
1543394475.9,286046994.9,P
1543394495.8,286046996.3,P
1543394515.6,286046995.9,Y
1543394535.4,286047000.0,P
1543394555.3,286047000.0,N
1543394575.1,286047000.1,N
1543394595.8,286047002.0,N
1543394615.7,286047001.6,N
1543394635.5,286047001.3,N
1543394655.4,286047002.7,N
1543394675.2,286046999.7,N
1543394695.0,286047000.1,N
1543394695.9,286047000.1,N
1543394715.8,286047002.7,N
1543394735.6,286047002.3,N
1543394755.4,286046999.8,N
1543394775.3,286047001.9,N
1543394795.1,286047002.3,N
1543394815.9,286046999.7,N
1543394835.7,286047002.4,N
1543394855.5,286047004.4,N
1543394875.4,286047003.0,N
1543394895.2,286047003.1,N
1543394915.0,286047003.7,N
1543394915.9,286047003.7,N
1543394935.8,286047004.0,N
1543394955.6,286047005.9,Y
1543394975.5,286047006.0,P
1543394995.3,286047005.9,N
1543395015.1,286047003.7,N
1543395035.9,286047002.2,N
1543395055.7,286047001.9,N
1543395075.5,286047001.8,N
1543395095.4,286047001.8,N
1543395115.2,286047003.9,N
1543395135.1,286047003.9,N
1543395136.0,286047003.9,N
1543395155.8,286047004.8,Y
1543395175.6,286046999.7,P
1543395195.5,286047000.5,N
1543395215.3,286047001.2,N
1543395235.1,286046998.3,N
1543395255.9,286046996.8,N
1543395275.7,286046997.1,N
1543395295.6,286046995.0,N
1543395315.4,286046996.4,N
1543395335.2,286046994.1,N
1543395355.1,286046993.8,N
1543395356.0,286046993.8,N
1543395375.8,286046993.6,N
1543395395.6,286046993.9,N
1543395415.5,286046995.7,N
1543395435.3,286046993.9,N
1543395455.2,286046997.9,N
1543395475.9,286046995.1,N
1543395495.7,286046995.1,N
1543395515.6,286046996.2,N
1543395535.4,286046995.0,N
1543395555.2,286046995.3,N
1543395575.1,286046996.1,N
1543395576.0,286046996.1,N
1543395595.8,286046996.1,N
